International Skating Union - Official Site

ISU World Single Distances Championships 2017
February 9-12,2017

Draw | Lap Times | Index

Referee: Dan  IMMERFALL  (USA)
Starter: John Magne  ELIASSEN  (NOR)
StartTime: EndTime: Air Temp: Ice Temp: Humidity:
20:33 20:42 15℃ -9℃ 35%
Result Mass Start Final Men 
Rankings as of Feb 12 2017 9:02PM
Rank: No.: Name: Nation: Sprint Points: Time: Behind:
1 97 Joey  Mantia USA USA 60 7:40.16
2 22 Alexis  Contin FRA FRA 41 7:41.11 0.95
3 13 Olivier  Jean CAN CAN 27 7:47.62 7.46
4 5 Vitaly  Mikhailov BLR BLR 8 7:47.75 7.59
5 2 Armin  Hager AUT AUT 8 7:52.00 11.84
6 74 Roland  Cieslak POL POL 7:50.64 10.48
7 56 Gary  Hekman NED NED 7:50.76 10.60
8 4 Bart  Swings BEL BEL 7:51.02 10.86
9 42 Shane  Williamson JPN JPN 7:51.49 11.33
10 28 Fabio  Francolini ITA ITA 7:51.53 11.37
11 47 Hyong-Jun  Joo KOR KOR 7:51.62 11.46
12 93 KC  Boutiette USA USA 7:52.21 12.05
13 19 Viktor Hald  Thorup DEN DEN 7:53.30 13.14
14 53 Jorrit  Bergsma NED NED 7:53.53 13.37
15 41 Ryosuke  Tsuchiya JPN JPN 7:54.51 14.35
16 90 Livio  Wenger SUI SUI 7:56.42 16.26
17 3 Linus  Heidegger AUT AUT 7:57.06 16.90
18 43 Dmitry  Babenko KAZ KAZ 7:57.93 17.77
19 6 Jordan  Belchos CAN CAN 7:57.96 17.80
20 30 Andrea  Giovannini ITA ITA 7:58.69 18.53
21 50 Min Seok  Kim KOR KOR 8:04.35 24.19
22 72 Peter  Michael NZL NZL 8:14.42 34.26
23 71 Reyon  Kay NZL NZL 7:49.76 9.60
24 85 Danila  Semerikov RUS RUS 7:27.15 -13.01